Location: Mountain Grove
(34.0887°N, 86.6172°W)
Time: 00:45:48
(UTC+00:00)

Cosmos 2151 - Pass Details

Date: 14 July 2020
Orbit: 580 x 602 km, 82.5° (Epoch: 12 August)

Event Time Altitude Azimuth Distance (km) Brightness Sun altitude
Exits shadow 03:43:42 48° 17° (NNE) 786 3.7 -26.4°
Drops below altitude 10° 03:46:49 10° 9° (N) 1,929 6.2 -26.8°
Sets 03:49:01 0° 8° (N) 2,830 7.2 -27.0°
